Time,TemperatureF,DewpointF,PressureIn,WindDirection,WindDirectionDegrees,WindSpeedMPH,WindSpeedGustMPH,Humidity,HourlyPrecipIn,Conditions,Clouds,dailyrainin,SoftwareType,DateUTC
2013-10-13 00:02:00,43.7,37.3,30.27,SSE,153,0.0,0.0,78,0.00,CLR,SKC,0.00,WeatherDisplay:10.37,2013-10-13 05:02:00,
2013-10-13 00:07:00,43.7,37.0,30.27,SSE,152,0.0,0.0,77,0.00,CLR,SKC,0.00,WeatherDisplay:10.37,2013-10-13 05:07:00,
2013-10-13 00:12:00,43.3,36.9,30.28,SSE,153,0.0,0.0,78,0.00,CLR,SKC,0.00,WeatherDisplay:10.37,2013-10-13 05:12:00,
2013-10-13 00:17:00,43.1,37.0,30.28,SSE,152,0.0,0.0,79,0.00,CLR,SKC,0.00,WeatherDisplay:10.37,2013-10-13 05:17:00,
2013-10-13 00:22:00,43.1,37.0,30.28,SSE,153,0.0,0.0,79,0.00,CLR,SKC,0.00,WeatherDisplay:10.37,2013-10-13 05:22:00,
2013-10-13 00:27:00,43.2,36.8,30.28,SSE,152,0.0,0.0,78,0.00,CLR,SKC,0.00,WeatherDisplay:10.37,2013-10-13 05:27:00,
2013-10-13 00:32:00,43.1,37.0,30.28,SSE,152,0.0,0.0,79,0.00,CLR,SKC,0.00,WeatherDisplay:10.37,2013-10-13 05:32:00,
2013-10-13 00:37:00,43.2,37.4,30.28,SSE,152,0.0,0.0,80,0.00,CLR,SKC,0.00,WeatherDisplay:10.37,2013-10-13 05:37:00,
2013-10-13 00:42:00,43.0,36.9,30.29,SSE,152,0.0,0.0,79,0.00,CLR,SKC,0.00,WeatherDisplay:10.37,2013-10-13 05:42:00,
2013-10-13 00:47:00,42.8,36.7,30.29,SSE,152,0.0,0.0,79,0.00,CLR,SKC,0.00,WeatherDisplay:10.37,2013-10-13 05:47:00,
2013-10-13 00:53:00,42.9,36.8,30.29,SSE,153,0.0,0.0,79,0.00,CLR,SKC,0.00,WeatherDisplay:10.37,2013-10-13 05:53:00,
2013-10-13 00:58:00,42.9,36.5,30.29,SSE,152,0.0,0.0,78,0.00,CLR,SKC,0.00,WeatherDisplay:10.37,2013-10-13 05:58:00,
2013-10-13 01:03:00,42.8,37.1,30.30,SSE,152,0.0,0.0,80,0.00,CLR,SKC,0.00,WeatherDisplay:10.37,2013-10-13 06:03:00,
2013-10-13 01:08:00,42.7,36.3,30.30,SSE,152,0.0,0.0,78,0.00,CLR,SKC,0.00,WeatherDisplay:10.37,2013-10-13 06:08:00,
2013-10-13 01:13:00,42.4,36.3,30.30,SSE,152,0.0,0.0,79,0.00,CLR,SKC,0.00,WeatherDisplay:10.37,2013-10-13 06:13:00,
2013-10-13 01:18:00,42.2,36.5,30.30,SSE,152,0.0,0.0,80,0.00,CLR,SKC,0.00,WeatherDisplay:10.37,2013-10-13 06:18:00,
2013-10-13 01:23:00,42.1,36.4,30.30,SSE,152,0.0,0.0,80,0.00,CLR,SKC,0.00,WeatherDisplay:10.37,2013-10-13 06:23:00,
2013-10-13 01:28:00,42.2,37.4,30.31,SSE,152,0.0,0.0,83,0.00,CLR,SKC,0.00,WeatherDisplay:10.37,2013-10-13 06:28:00,
2013-10-13 01:33:00,42.2,37.7,30.31,SSE,152,0.0,0.0,84,0.00,CLR,SKC,0.00,WeatherDisplay:10.37,2013-10-13 06:33:00,
2013-10-13 01:38:00,42.2,37.1,30.31,SSE,152,0.0,0.0,82,0.00,CLR,SKC,0.00,WeatherDisplay:10.37,2013-10-13 06:38:00,
2013-10-13 01:43:00,42.0,37.2,30.31,SSE,152,0.0,0.0,83,0.00,CLR,SKC,0.00,WeatherDisplay:10.37,2013-10-13 06:43:00,
2013-10-13 01:48:00,42.0,37.5,30.31,SSE,152,0.0,0.0,84,0.00,CLR,SKC,0.00,WeatherDisplay:10.37,2013-10-13 06:48:00,
2013-10-13 01:53:00,41.7,37.5,30.31,SSE,152,0.0,0.0,85,0.00,CLR,SKC,0.00,WeatherDisplay:10.37,2013-10-13 06:53:00,
2013-10-13 01:58:00,41.8,36.7,30.31,SSE,152,0.0,0.0,82,0.00,CLR,SKC,0.00,WeatherDisplay:10.37,2013-10-13 06:58:00,
2013-10-13 02:03:00,41.7,36.3,30.31,SSE,152,0.0,0.0,81,0.00,CLR,SKC,0.00,WeatherDisplay:10.37,2013-10-13 07:03:00,
2013-10-13 02:08:00,41.5,35.8,30.31,SSE,152,0.0,0.0,80,0.00,CLR,SKC,0.00,WeatherDisplay:10.37,2013-10-13 07:08:00,
2013-10-13 02:13:00,41.3,35.9,30.31,SSE,152,0.0,0.0,81,0.00,CLR,SKC,0.00,WeatherDisplay:10.37,2013-10-13 07:13:00,
2013-10-13 02:18:00,41.3,35.9,30.31,SSE,152,0.0,0.0,81,0.00,CLR,SKC,0.00,WeatherDisplay:10.37,2013-10-13 07:18:00,
2013-10-13 02:23:00,41.3,35.9,30.31,SSE,152,0.0,0.0,81,0.00,CLR,SKC,0.00,WeatherDisplay:10.37,2013-10-13 07:23:00,
2013-10-13 02:28:00,41.3,35.9,30.32,SSE,152,0.0,0.0,81,0.00,CLR,SKC,0.00,WeatherDisplay:10.37,2013-10-13 07:28:00,
2013-10-13 02:33:00,41.2,36.1,30.32,SSE,152,0.0,0.0,82,0.00,CLR,SKC,0.00,WeatherDisplay:10.37,2013-10-13 07:33:00,
2013-10-13 02:38:00,41.0,36.2,30.32,SSE,152,0.0,0.0,83,0.00,CLR,SKC,0.00,WeatherDisplay:10.37,2013-10-13 07:38:00,
2013-10-13 02:43:00,40.8,36.6,30.32,SSE,152,0.0,0.0,85,0.00,CLR,SKC,0.00,WeatherDisplay:10.37,2013-10-13 07:43:00,
2013-10-13 02:48:00,40.8,36.6,30.32,SSE,152,0.0,0.0,85,0.00,CLR,SKC,0.00,WeatherDisplay:10.37,2013-10-13 07:48:00,
2013-10-13 02:53:00,40.9,36.7,30.32,SSE,152,0.0,0.0,85,0.00,CLR,SKC,0.00,WeatherDisplay:10.37,2013-10-13 07:53:00,
2013-10-13 02:58:00,41.2,36.4,30.32,SSE,152,0.0,0.0,83,0.00,CLR,SKC,0.00,WeatherDisplay:10.37,2013-10-13 07:58:00,
2013-10-13 03:03:00,41.4,36.9,30.32,SSE,152,0.0,0.0,84,0.00,CLR,SKC,0.00,WeatherDisplay:10.37,2013-10-13 08:03:00,
2013-10-13 03:08:00,41.4,36.3,30.32,SSE,152,0.0,0.0,82,0.00,CLR,SKC,0.00,WeatherDisplay:10.37,2013-10-13 08:08:00,
2013-10-13 03:13:00,41.1,36.3,30.32,SSE,152,0.0,0.0,83,0.00,CLR,SKC,0.00,WeatherDisplay:10.37,2013-10-13 08:13:00,
2013-10-13 03:18:00,40.7,36.2,30.32,SSE,152,0.0,0.0,84,0.00,CLR,SKC,0.00,WeatherDisplay:10.37,2013-10-13 08:18:00,
2013-10-13 03:23:00,40.3,35.8,30.32,SSE,152,0.0,0.0,84,0.00,CLR,SKC,0.00,WeatherDisplay:10.37,2013-10-13 08:23:00,
2013-10-13 03:28:00,40.3,36.1,30.32,SSE,152,0.0,0.0,85,0.00,CLR,SKC,0.00,WeatherDisplay:10.37,2013-10-13 08:28:00,
2013-10-13 03:33:00,40.4,36.2,30.32,SSE,152,0.0,0.0,85,0.00,CLR,SKC,0.00,WeatherDisplay:10.37,2013-10-13 08:33:00,
2013-10-13 03:38:00,40.3,35.8,30.32,SSE,152,0.0,0.0,84,0.00,CLR,SKC,0.00,WeatherDisplay:10.37,2013-10-13 08:38:00,
2013-10-13 03:43:00,39.8,35.7,30.32,SSE,152,0.0,0.0,85,0.00,CLR,SKC,0.00,WeatherDisplay:10.37,2013-10-13 08:43:00,
2013-10-13 03:48:00,39.5,35.7,30.32,SSE,152,0.0,0.0,86,0.00,CLR,SKC,0.00,WeatherDisplay:10.37,2013-10-13 08:48:00,
2013-10-13 03:53:00,39.3,35.8,30.32,SSE,152,0.0,0.0,87,0.00,CLR,SKC,0.00,WeatherDisplay:10.37,2013-10-13 08:53:00,
2013-10-13 03:58:00,39.0,35.5,30.32,SSE,152,0.0,0.0,87,0.00,CLR,SKC,0.00,WeatherDisplay:10.37,2013-10-13 08:58:00,
2013-10-13 04:03:00,38.7,35.5,30.33,SSE,152,0.0,0.0,88,0.00,CLR,SKC,0.00,WeatherDisplay:10.37,2013-10-13 09:03:00,
2013-10-13 04:08:00,38.4,35.2,30.33,SSE,152,0.0,0.0,88,0.00,CLR,SKC,0.00,WeatherDisplay:10.37,2013-10-13 09:08:00,
2013-10-13 04:13:00,38.5,35.8,30.33,SSE,152,0.0,0.0,90,0.00,CLR,SKC,0.00,WeatherDisplay:10.37,2013-10-13 09:13:00,
2013-10-13 04:18:00,38.9,36.2,30.33,SSE,152,0.0,0.0,90,0.00,CLR,SKC,0.00,WeatherDisplay:10.37,2013-10-13 09:18:00,
2013-10-13 04:23:00,39.0,36.0,30.33,SSE,152,0.0,0.0,89,0.00,CLR,SKC,0.00,WeatherDisplay:10.37,2013-10-13 09:23:00,
2013-10-13 04:28:00,38.7,35.7,30.33,SSE,152,0.0,0.0,89,0.00,CLR,SKC,0.00,WeatherDisplay:10.37,2013-10-13 09:28:00,
2013-10-13 04:33:00,38.5,35.8,30.33,SSE,152,0.0,0.0,90,0.00,CLR,SKC,0.00,WeatherDisplay:10.37,2013-10-13 09:33:00,
2013-10-13 04:38:00,38.3,35.6,30.33,SSE,153,0.0,0.0,90,0.00,CLR,SKC,0.00,WeatherDisplay:10.37,2013-10-13 09:38:00,
2013-10-13 04:43:00,37.9,34.9,30.33,SSE,153,0.0,0.0,89,0.00,CLR,SKC,0.00,WeatherDisplay:10.37,2013-10-13 09:43:00,
2013-10-13 04:48:00,37.7,35.0,30.33,SSE,152,0.0,0.0,90,0.00,CLR,SKC,0.00,WeatherDisplay:10.37,2013-10-13 09:48:00,
2013-10-13 04:53:00,37.7,35.3,30.33,SSE,152,0.0,0.0,91,0.00,CLR,SKC,0.00,WeatherDisplay:10.37,2013-10-13 09:53:00,
2013-10-13 04:58:00,38.0,35.9,30.33,SSE,152,0.0,0.0,92,0.00,CLR,SKC,0.00,WeatherDisplay:10.37,2013-10-13 09:58:00,
2013-10-13 05:03:00,38.1,35.7,30.33,SSE,152,0.0,0.0,91,0.00,CLR,SKC,0.00,WeatherDisplay:10.37,2013-10-13 10:03:00,
2013-10-13 05:08:00,37.9,35.5,30.33,SSE,153,0.0,0.0,91,0.00,CLR,SKC,0.00,WeatherDisplay:10.37,2013-10-13 10:08:00,
2013-10-13 05:13:00,37.8,35.4,30.34,SSE,152,0.0,0.0,91,0.00,CLR,SKC,0.00,WeatherDisplay:10.37,2013-10-13 10:13:00,
2013-10-13 05:18:00,37.8,35.7,30.34,SSE,152,0.0,0.0,92,0.00,CLR,SKC,0.00,WeatherDisplay:10.37,2013-10-13 10:18:00,
2013-10-13 05:23:00,37.9,35.8,30.34,SSE,152,0.0,0.0,92,0.00,CLR,SKC,0.00,WeatherDisplay:10.37,2013-10-13 10:23:00,
2013-10-13 05:28:00,37.8,35.7,30.34,SSE,152,0.0,0.0,92,0.00,CLR,SKC,0.00,WeatherDisplay:10.37,2013-10-13 10:28:00,
2013-10-13 05:33:00,37.6,35.5,30.34,SSE,152,0.0,0.0,92,0.00,CLR,SKC,0.00,WeatherDisplay:10.37,2013-10-13 10:33:00,
2013-10-13 05:38:00,37.8,36.0,30.34,SSE,152,0.0,0.0,93,0.00,CLR,SKC,0.00,WeatherDisplay:10.37,2013-10-13 10:38:00,
2013-10-13 05:43:00,37.7,35.9,30.34,SSE,152,0.0,0.0,93,0.00,CLR,SKC,0.00,WeatherDisplay:10.37,2013-10-13 10:43:00,
2013-10-13 05:48:00,38.1,36.5,30.34,SE,132,0.1,0.0,94,0.00,CLR,SKC,0.00,WeatherDisplay:10.37,2013-10-13 10:48:00,
2013-10-13 05:53:00,38.5,36.7,30.34,SE,132,0.0,0.0,93,0.00,CLR,SKC,0.00,WeatherDisplay:10.37,2013-10-13 10:53:00,
2013-10-13 05:58:00,38.5,36.4,30.34,SE,133,0.0,0.0,92,0.00,CLR,SKC,0.00,WeatherDisplay:10.37,2013-10-13 10:58:00,
2013-10-13 06:03:00,38.5,36.4,30.34,SE,132,0.0,0.0,92,0.00,CLR,SKC,0.00,WeatherDisplay:10.37,2013-10-13 11:03:00,
2013-10-13 06:08:00,38.4,36.3,30.34,SE,133,0.0,0.0,92,0.00,CLR,SKC,0.00,WeatherDisplay:10.37,2013-10-13 11:08:00,
2013-10-13 06:13:00,38.2,36.4,30.35,SE,133,0.0,0.0,93,0.00,CLR,SKC,0.00,WeatherDisplay:10.37,2013-10-13 11:13:00,
2013-10-13 06:18:00,38.4,36.6,30.35,SE,132,0.0,0.0,93,0.00,CLR,SKC,0.00,WeatherDisplay:10.37,2013-10-13 11:18:00,
2013-10-13 06:24:00,38.5,36.7,30.35,SE,133,0.0,0.0,93,0.00,CLR,SKC,0.00,WeatherDisplay:10.37,2013-10-13 11:24:00,
2013-10-13 06:29:00,38.5,36.7,30.35,SE,132,0.0,0.0,93,0.00,CLR,SKC,0.00,WeatherDisplay:10.37,2013-10-13 11:29:00,
2013-10-13 06:34:00,38.4,36.3,30.35,SE,133,0.0,0.0,92,0.00,CLR,SKC,0.00,WeatherDisplay:10.37,2013-10-13 11:34:00,
2013-10-13 06:39:00,38.1,36.0,30.35,SE,132,0.0,0.0,92,0.00,CLR,SKC,0.00,WeatherDisplay:10.37,2013-10-13 11:39:00,
2013-10-13 06:44:00,37.9,35.8,30.36,SE,132,0.0,0.0,92,0.00,CLR,SKC,0.00,WeatherDisplay:10.37,2013-10-13 11:44:00,
2013-10-13 06:49:00,37.8,36.0,30.36,SE,132,0.0,0.0,93,0.00,CLR,SKC,0.00,WeatherDisplay:10.37,2013-10-13 11:49:00,
2013-10-13 06:54:00,37.7,35.9,30.36,SE,132,0.0,0.0,93,0.00,CLR,SKC,0.00,WeatherDisplay:10.37,2013-10-13 11:54:00,
2013-10-13 06:59:00,37.8,36.0,30.36,SE,132,0.0,0.0,93,0.00,CLR,SKC,0.00,WeatherDisplay:10.37,2013-10-13 11:59:00,
2013-10-13 07:04:00,37.9,36.3,30.36,SE,132,0.0,0.0,94,0.00,CLR,SKC,0.00,WeatherDisplay:10.37,2013-10-13 12:04:00,
2013-10-13 07:09:00,37.9,36.3,30.37,SE,132,0.0,0.0,94,0.00,CLR,SKC,0.00,WeatherDisplay:10.37,2013-10-13 12:09:00,
2013-10-13 07:14:00,37.8,36.0,30.37,SE,132,0.0,0.0,93,0.00,CLR,SKC,0.00,WeatherDisplay:10.37,2013-10-13 12:14:00,
2013-10-13 07:19:00,37.6,35.8,30.37,SE,132,0.0,0.0,93,0.00,CLR,SKC,0.00,WeatherDisplay:10.37,2013-10-13 12:19:00,
2013-10-13 07:24:00,37.7,35.9,30.37,SE,132,0.0,0.0,93,0.00,CLR,SKC,0.00,WeatherDisplay:10.37,2013-10-13 12:24:00,
2013-10-13 07:29:00,37.7,35.9,30.37,SE,132,0.0,0.0,93,0.00,CLR,SKC,0.00,WeatherDisplay:10.37,2013-10-13 12:29:00,
2013-10-13 07:34:00,37.7,35.9,30.37,SE,136,0.0,0.0,93,0.00,CLR,SKC,0.00,WeatherDisplay:10.37,2013-10-13 12:34:00,
2013-10-13 07:39:00,38.1,36.3,30.37,SE,136,0.0,0.0,93,0.00,CLR,SKC,0.00,WeatherDisplay:10.37,2013-10-13 12:39:00,
2013-10-13 07:44:00,39.1,36.1,30.37,SE,135,0.0,0.0,89,0.00,CLR,SKC,0.00,WeatherDisplay:10.37,2013-10-13 12:44:00,
2013-10-13 07:49:00,39.6,36.6,30.38,SE,136,0.0,0.0,89,0.00,CLR,SKC,0.00,WeatherDisplay:10.37,2013-10-13 12:49:00,
2013-10-13 07:54:00,39.9,36.9,30.38,SE,134,0.0,0.0,89,0.00,CLR,SKC,0.00,WeatherDisplay:10.37,2013-10-13 12:54:00,
2013-10-13 07:59:00,40.6,37.6,30.38,SE,134,0.0,0.0,89,0.00,CLR,SKC,0.00,WeatherDisplay:10.37,2013-10-13 12:59:00,
2013-10-13 08:04:00,41.2,37.6,30.38,SE,134,0.0,0.0,87,0.00,CLR,SKC,0.00,WeatherDisplay:10.37,2013-10-13 13:04:00,
2013-10-13 08:09:00,41.2,37.3,30.38,SE,134,0.0,0.0,86,0.00,CLR,SKC,0.00,WeatherDisplay:10.37,2013-10-13 13:09:00,
2013-10-13 08:14:00,41.5,37.9,30.38,SE,134,0.0,0.0,87,0.00,CLR,SKC,0.00,WeatherDisplay:10.37,2013-10-13 13:14:00,
2013-10-13 08:19:00,42.1,38.2,30.38,SE,134,0.0,0.0,86,0.00,CLR,SKC,0.00,WeatherDisplay:10.37,2013-10-13 13:19:00,
2013-10-13 08:24:00,43.4,38.9,30.38,SE,134,0.0,0.0,84,0.00,CLR,SKC,0.00,WeatherDisplay:10.37,2013-10-13 13:24:00,
2013-10-13 08:29:00,45.1,38.6,30.39,SE,134,0.0,0.0,78,0.00,CLR,SKC,0.00,WeatherDisplay:10.37,2013-10-13 13:29:00,
2013-10-13 08:34:00,44.7,38.3,30.39,SE,134,0.0,0.0,78,0.00,CLR,SKC,0.00,WeatherDisplay:10.37,2013-10-13 13:34:00,
2013-10-13 08:39:00,44.6,38.2,30.39,SE,134,0.0,0.0,78,0.00,CLR,SKC,0.00,WeatherDisplay:10.37,2013-10-13 13:39:00,
2013-10-13 08:44:00,44.8,38.4,30.39,SE,134,0.0,0.0,78,0.00,CLR,SKC,0.00,WeatherDisplay:10.37,2013-10-13 13:44:00,
2013-10-13 08:49:00,46.1,39.3,30.39,SE,134,0.0,0.0,77,0.00,CLR,SKC,0.00,WeatherDisplay:10.37,2013-10-13 13:49:00,
2013-10-13 08:54:00,47.5,39.3,30.39,ESE,118,0.0,0.0,73,0.00,CLR,SKC,0.00,WeatherDisplay:10.37,2013-10-13 13:54:00,
2013-10-13 08:59:00,48.5,38.8,30.40,ESE,103,0.1,1.1,69,0.00,CLR,SKC,0.00,WeatherDisplay:10.37,2013-10-13 13:59:00,
2013-10-13 09:04:00,48.7,38.6,30.40,ESE,104,0.0,0.0,68,0.00,CLR,SKC,0.00,WeatherDisplay:10.37,2013-10-13 14:04:00,
2013-10-13 09:09:00,48.8,37.9,30.40,ESE,103,0.0,0.0,66,0.00,CLR,SKC,0.00,WeatherDisplay:10.37,2013-10-13 14:09:00,
2013-10-13 09:14:00,49.6,38.7,30.40,ESE,113,0.1,1.1,66,0.00,CLR,SKC,0.00,WeatherDisplay:10.37,2013-10-13 14:14:00,
2013-10-13 09:19:00,50.3,38.2,30.40,ESE,111,0.3,1.1,63,0.00,CLR,SKC,0.00,WeatherDisplay:10.37,2013-10-13 14:19:00,
2013-10-13 09:24:00,51.0,38.8,30.40,ESE,118,0.9,1.1,63,0.00,CLR,SKC,0.00,WeatherDisplay:10.37,2013-10-13 14:24:00,
2013-10-13 09:29:00,51.5,38.5,30.40,SE,137,1.8,3.5,61,0.00,CLR,SKC,0.00,WeatherDisplay:10.37,2013-10-13 14:29:00,
2013-10-13 09:34:00,51.7,37.8,30.40,ESE,115,2.1,3.0,59,0.00,CLR,SKC,0.00,WeatherDisplay:10.37,2013-10-13 14:34:00,
2013-10-13 09:39:00,52.1,38.2,30.40,ESE,108,1.8,2.3,59,0.00,CLR,SKC,0.00,WeatherDisplay:10.37,2013-10-13 14:39:00,
2013-10-13 09:44:00,52.3,37.5,30.41,East,82,1.3,3.5,57,0.00,CLR,SKC,0.00,WeatherDisplay:10.37,2013-10-13 14:44:00,
2013-10-13 09:49:00,52.9,38.1,30.41,ESE,120,2.1,3.0,57,0.00,CLR,SKC,0.00,WeatherDisplay:10.37,2013-10-13 14:49:00,
2013-10-13 09:54:00,53.4,37.6,30.41,SE,128,3.7,5.8,55,0.00,CLR,SKC,0.00,WeatherDisplay:10.37,2013-10-13 14:54:00,
2013-10-13 09:59:00,53.7,37.0,30.41,SE,128,3.6,5.8,53,0.00,CLR,SKC,0.00,WeatherDisplay:10.37,2013-10-13 14:59:00,
2013-10-13 10:04:00,54.2,35.4,30.41,East,100,3.9,5.8,49,0.00,CLR,SKC,0.00,WeatherDisplay:10.37,2013-10-13 15:04:00,
2013-10-13 10:09:00,54.7,36.4,30.41,SSE,149,2.5,3.5,50,0.00,CLR,SKC,0.00,WeatherDisplay:10.37,2013-10-13 15:09:00,
2013-10-13 10:14:00,55.2,34.8,30.41,ESE,108,4.7,6.9,46,0.00,CLR,SKC,0.00,WeatherDisplay:10.37,2013-10-13 15:14:00,
2013-10-13 10:19:00,55.4,35.5,30.41,East,89,3.8,6.0,47,0.00,CLR,SKC,0.00,WeatherDisplay:10.37,2013-10-13 15:19:00,
2013-10-13 10:24:00,55.8,35.9,30.41,ESE,108,2.2,4.0,47,0.00,CLR,SKC,0.00,WeatherDisplay:10.37,2013-10-13 15:24:00,
2013-10-13 10:29:00,56.1,36.1,30.41,ESE,107,3.1,4.6,47,0.00,CLR,SKC,0.00,WeatherDisplay:10.37,2013-10-13 15:29:00,
2013-10-13 10:34:00,56.7,35.6,30.41,SE,136,3.7,5.0,45,0.00,CLR,SKC,0.00,WeatherDisplay:10.37,2013-10-13 15:34:00,
2013-10-13 10:39:00,56.9,34.6,30.41,ESE,111,5.5,9.2,43,0.00,CLR,SKC,0.00,WeatherDisplay:10.37,2013-10-13 15:39:00,
2013-10-13 10:44:00,56.8,34.5,30.41,SE,124,4.7,6.9,43,0.00,CLR,SKC,0.00,WeatherDisplay:10.37,2013-10-13 15:44:00,
2013-10-13 10:49:00,57.1,34.8,30.41,East,83,5.0,8.1,43,0.00,CLR,SKC,0.00,WeatherDisplay:10.37,2013-10-13 15:49:00,
2013-10-13 10:54:00,57.5,37.4,30.41,East,86,1.9,3.5,47,0.00,CLR,SKC,0.00,WeatherDisplay:10.37,2013-10-13 15:54:00,
2013-10-13 10:59:00,58.0,36.8,30.41,East,81,2.7,4.6,45,0.00,CLR,SKC,0.00,WeatherDisplay:10.37,2013-10-13 15:59:00,
2013-10-13 11:04:00,58.4,36.0,30.41,ESE,114,4.6,6.9,43,0.00,CLR,SKC,0.00,WeatherDisplay:10.37,2013-10-13 16:04:00,
2013-10-13 11:09:00,58.4,36.0,30.41,SE,128,4.9,8.0,43,0.00,CLR,SKC,0.00,WeatherDisplay:10.37,2013-10-13 16:09:00,
2013-10-13 11:14:00,58.5,36.1,30.41,SE,124,3.3,5.8,43,0.00,CLR,SKC,0.00,WeatherDisplay:10.37,2013-10-13 16:14:00,
2013-10-13 11:19:00,58.9,36.4,30.41,East,94,4.4,6.9,43,0.00,CLR,SKC,0.00,WeatherDisplay:10.37,2013-10-13 16:19:00,
2013-10-13 11:24:00,59.1,36.6,30.41,ESE,122,5.7,6.9,43,0.00,CLR,SKC,0.00,WeatherDisplay:10.37,2013-10-13 16:24:00,
2013-10-13 11:29:00,59.4,36.3,30.41,SE,141,6.9,8.1,42,0.00,CLR,SKC,0.00,WeatherDisplay:10.37,2013-10-13 16:29:00,
2013-10-13 11:34:00,59.3,36.8,30.41,East,89,2.6,5.8,43,0.00,CLR,SKC,0.00,WeatherDisplay:10.37,2013-10-13 16:34:00,
2013-10-13 11:39:00,59.4,36.9,30.41,SE,129,5.2,6.9,43,0.00,CLR,SKC,0.00,WeatherDisplay:10.37,2013-10-13 16:39:00,
2013-10-13 11:44:00,59.5,37.0,30.41,SE,128,3.5,5.8,43,0.00,CLR,SKC,0.00,WeatherDisplay:10.37,2013-10-13 16:44:00,
2013-10-13 11:49:00,60.1,38.1,30.41,South,170,4.8,8.1,44,0.00,CLR,SKC,0.00,WeatherDisplay:10.37,2013-10-13 16:49:00,
2013-10-13 11:54:00,60.3,37.7,30.41,SSE,161,4.0,6.9,43,0.00,CLR,SKC,0.00,WeatherDisplay:10.37,2013-10-13 16:54:00,
2013-10-13 11:59:00,60.3,37.7,30.41,ESE,108,4.6,6.0,43,0.00,CLR,SKC,0.00,WeatherDisplay:10.37,2013-10-13 16:59:00,
2013-10-13 12:04:00,60.6,36.8,30.40,SSE,164,2.4,9.2,41,0.00,CLR,SKC,0.00,WeatherDisplay:10.37,2013-10-13 17:04:00,
2013-10-13 12:10:00,60.6,36.8,30.40,East,95,6.1,8.1,41,0.00,CLR,SKC,0.00,WeatherDisplay:10.37,2013-10-13 17:10:00,
2013-10-13 12:15:00,60.7,36.8,30.40,East,94,4.2,6.9,41,0.00,CLR,SKC,0.00,WeatherDisplay:10.37,2013-10-13 17:15:00,
2013-10-13 12:20:00,61.1,36.6,30.40,SE,129,6.1,8.1,40,0.00,CLR,SKC,0.00,WeatherDisplay:10.37,2013-10-13 17:20:00,
2013-10-13 12:25:00,61.3,36.8,30.40,East,85,6.4,6.4,40,0.00,CLR,SKC,0.00,WeatherDisplay:10.37,2013-10-13 17:25:00,
2013-10-13 12:30:00,61.9,39.1,30.40,East,87,2.9,6.9,43,0.00,CLR,SKC,0.00,WeatherDisplay:10.37,2013-10-13 17:30:00,
2013-10-13 12:35:00,62.2,37.6,30.40,ESE,116,3.3,4.0,40,0.00,CLR,SKC,0.00,WeatherDisplay:10.37,2013-10-13 17:35:00,
2013-10-13 12:40:00,62.0,37.4,30.39,ENE,77,5.9,5.9,40,0.00,CLR,SKC,0.00,WeatherDisplay:10.37,2013-10-13 17:40:00,
2013-10-13 12:45:00,62.3,37.0,30.39,ESE,115,6.2,9.2,39,0.00,CLR,SKC,0.00,WeatherDisplay:10.37,2013-10-13 17:45:00,
2013-10-13 12:50:00,62.5,36.5,30.39,ESE,106,4.8,9.2,38,0.00,CLR,SKC,0.00,WeatherDisplay:10.37,2013-10-13 17:50:00,
2013-10-13 12:55:00,62.6,36.6,30.39,ESE,119,4.7,8.1,38,0.00,CLR,SKC,0.00,WeatherDisplay:10.37,2013-10-13 17:55:00,
2013-10-13 13:00:00,63.0,37.6,30.39,East,82,3.6,8.0,39,0.00,CLR,SKC,0.00,WeatherDisplay:10.37,2013-10-13 18:00:00,
2013-10-13 13:05:00,63.3,35.9,30.39,ESE,103,5.4,10.4,36,0.00,CLR,SKC,0.00,WeatherDisplay:10.37,2013-10-13 18:05:00,
2013-10-13 13:10:00,63.2,36.5,30.39,ESE,111,7.1,10.0,37,0.00,CLR,SKC,0.00,WeatherDisplay:10.37,2013-10-13 18:10:00,
2013-10-13 13:15:00,63.4,37.3,30.38,SE,131,3.9,5.8,38,0.00,CLR,SKC,0.00,WeatherDisplay:10.37,2013-10-13 18:15:00,
2013-10-13 13:20:00,63.6,36.8,30.38,SE,129,6.5,8.1,37,0.00,CLR,SKC,0.00,WeatherDisplay:10.37,2013-10-13 18:20:00,
2013-10-13 13:25:00,63.6,36.8,30.38,ESE,106,5.1,8.0,37,0.00,CLR,SKC,0.00,WeatherDisplay:10.37,2013-10-13 18:25:00,
2013-10-13 13:30:00,63.9,37.1,30.38,SE,138,1.9,4.6,37,0.00,CLR,SKC,0.00,WeatherDisplay:10.37,2013-10-13 18:30:00,
2013-10-13 13:35:00,64.3,38.1,30.37,SE,129,2.8,4.6,38,0.00,CLR,SKC,0.00,WeatherDisplay:10.37,2013-10-13 18:35:00,
2013-10-13 13:40:00,64.7,36.4,30.37,ESE,104,6.8,11.5,35,0.00,CLR,SKC,0.00,WeatherDisplay:10.37,2013-10-13 18:40:00,
2013-10-13 13:45:00,64.6,37.0,30.37,ESE,102,7.2,11.5,36,0.00,CLR,SKC,0.00,WeatherDisplay:10.37,2013-10-13 18:45:00,
2013-10-13 13:50:00,64.2,36.7,30.36,ESE,105,3.8,7.0,36,0.00,CLR,SKC,0.00,WeatherDisplay:10.37,2013-10-13 18:50:00,
2013-10-13 13:55:00,64.4,37.5,30.36,NE,52,4.5,5.8,37,0.00,CLR,SKC,0.00,WeatherDisplay:10.37,2013-10-13 18:55:00,
2013-10-13 14:00:00,64.7,37.1,30.35,East,101,3.1,5.8,36,0.00,CLR,SKC,0.00,WeatherDisplay:10.37,2013-10-13 19:00:00,
2013-10-13 14:05:00,65.5,37.1,30.35,ESE,110,5.9,11.5,35,0.00,CLR,SKC,0.00,WeatherDisplay:10.37,2013-10-13 19:05:00,
2013-10-13 14:10:00,65.3,36.2,30.35,East,90,5.0,8.1,34,0.00,CLR,SKC,0.00,WeatherDisplay:10.37,2013-10-13 19:10:00,
2013-10-13 14:15:00,65.1,36.0,30.35,ESE,122,8.2,11.5,34,0.00,CLR,SKC,0.00,WeatherDisplay:10.37,2013-10-13 19:15:00,
2013-10-13 14:20:00,65.3,36.9,30.35,SE,140,2.0,4.6,35,0.00,CLR,SKC,0.00,WeatherDisplay:10.37,2013-10-13 19:20:00,
2013-10-13 14:25:00,65.8,36.6,30.35,SSE,162,2.8,5.8,34,0.00,CLR,SKC,0.00,WeatherDisplay:10.37,2013-10-13 19:25:00,
2013-10-13 14:30:00,65.7,35.8,30.35,SE,145,8.2,11.5,33,0.00,CLR,SKC,0.00,WeatherDisplay:10.37,2013-10-13 19:30:00,
2013-10-13 14:35:00,66.0,36.1,30.34,ESE,103,5.0,9.2,33,0.00,CLR,SKC,0.00,WeatherDisplay:10.37,2013-10-13 19:35:00,
2013-10-13 14:40:00,66.2,37.0,30.34,SE,139,2.6,5.8,34,0.00,CLR,SKC,0.00,WeatherDisplay:10.37,2013-10-13 19:40:00,
2013-10-13 14:45:00,66.6,37.3,30.34,SE,141,4.1,5.8,34,0.00,CLR,SKC,0.00,WeatherDisplay:10.37,2013-10-13 19:45:00,
2013-10-13 14:50:00,66.6,37.3,30.33,SSW,195,2.9,6.9,34,0.00,CLR,SKC,0.00,WeatherDisplay:10.37,2013-10-13 19:50:00,
2013-10-13 14:55:00,67.0,36.9,30.33,East,101,5.1,8.1,33,0.00,CLR,SKC,0.00,WeatherDisplay:10.37,2013-10-13 19:55:00,
2013-10-13 15:00:00,67.3,37.2,30.33,SW,217,4.2,8.1,33,0.00,CLR,SKC,0.00,WeatherDisplay:10.37,2013-10-13 20:00:00,
2013-10-13 15:05:00,67.5,36.6,30.33,SE,131,3.9,8.1,32,0.00,CLR,SKC,0.00,WeatherDisplay:10.37,2013-10-13 20:05:00,
2013-10-13 15:10:00,67.2,36.3,30.32,SE,136,4.8,8.1,32,0.00,CLR,SKC,0.00,WeatherDisplay:10.37,2013-10-13 20:10:00,
2013-10-13 15:15:00,67.3,36.4,30.32,SE,131,3.3,5.8,32,0.00,CLR,SKC,0.00,WeatherDisplay:10.37,2013-10-13 20:15:00,
2013-10-13 15:20:00,67.5,37.4,30.32,SE,141,2.8,3.5,33,0.00,CLR,SKC,0.00,WeatherDisplay:10.37,2013-10-13 20:20:00,
2013-10-13 15:25:00,68.0,37.0,30.31,ENE,77,2.0,3.5,32,0.00,CLR,SKC,0.00,WeatherDisplay:10.37,2013-10-13 20:25:00,
2013-10-13 15:30:00,67.8,36.8,30.31,East,87,5.6,8.1,32,0.00,CLR,SKC,0.00,WeatherDisplay:10.37,2013-10-13 20:30:00,
2013-10-13 15:35:00,67.3,35.6,30.31,SE,136,7.6,9.2,31,0.00,CLR,SKC,0.00,WeatherDisplay:10.37,2013-10-13 20:35:00,
2013-10-13 15:40:00,67.1,35.4,30.31,ESE,117,5.6,10.4,31,0.00,CLR,SKC,0.00,WeatherDisplay:10.37,2013-10-13 20:40:00,
2013-10-13 15:45:00,67.0,36.9,30.31,ESE,104,5.9,10.0,33,0.00,CLR,SKC,0.00,WeatherDisplay:10.37,2013-10-13 20:45:00,
2013-10-13 15:50:00,67.1,35.4,30.31,SSE,148,4.0,8.1,31,0.00,CLR,SKC,0.00,WeatherDisplay:10.37,2013-10-13 20:50:00,
2013-10-13 15:55:00,67.4,36.5,30.31,East,94,4.7,9.2,32,0.00,CLR,SKC,0.00,WeatherDisplay:10.37,2013-10-13 20:55:00,
2013-10-13 16:00:00,67.6,36.7,30.31,ESE,111,3.5,4.6,32,0.00,CLR,SKC,0.00,WeatherDisplay:10.37,2013-10-13 21:00:00,
2013-10-13 16:05:00,67.4,36.5,30.31,ESE,120,5.9,10.4,32,0.00,CLR,SKC,0.00,WeatherDisplay:10.37,2013-10-13 21:05:00,
2013-10-13 16:10:00,67.8,36.8,30.30,ESE,108,5.7,9.0,32,0.00,CLR,SKC,0.00,WeatherDisplay:10.37,2013-10-13 21:10:00,
2013-10-13 16:15:00,67.7,36.8,30.30,ESE,118,4.6,8.1,32,0.00,CLR,SKC,0.00,WeatherDisplay:10.37,2013-10-13 21:15:00,
2013-10-13 16:20:00,67.8,37.6,30.30,NE,49,4.0,4.6,33,0.00,CLR,SKC,0.00,WeatherDisplay:10.37,2013-10-13 21:20:00,
2013-10-13 16:25:00,67.6,36.7,30.30,ESE,108,5.9,9.2,32,0.00,CLR,SKC,0.00,WeatherDisplay:10.37,2013-10-13 21:25:00,
2013-10-13 16:30:00,67.5,36.6,30.30,ESE,117,6.2,9.2,32,0.00,CLR,SKC,0.00,WeatherDisplay:10.37,2013-10-13 21:30:00,
2013-10-13 16:35:00,67.7,36.8,30.30,ESE,120,4.9,6.9,32,0.00,CLR,SKC,0.00,WeatherDisplay:10.37,2013-10-13 21:35:00,
2013-10-13 16:40:00,67.6,36.7,30.30,ESE,110,4.9,6.9,32,0.00,CLR,SKC,0.00,WeatherDisplay:10.37,2013-10-13 21:40:00,
2013-10-13 16:45:00,67.6,36.7,30.29,SSE,162,3.3,6.0,32,0.00,CLR,SKC,0.00,WeatherDisplay:10.37,2013-10-13 21:45:00,
2013-10-13 16:50:00,67.6,37.5,30.29,SE,136,4.1,8.1,33,0.00,CLR,SKC,0.00,WeatherDisplay:10.37,2013-10-13 21:50:00,
2013-10-13 16:55:00,67.7,38.3,30.29,SE,129,2.5,3.5,34,0.00,CLR,SKC,0.00,WeatherDisplay:10.37,2013-10-13 21:55:00,
2013-10-13 17:00:00,67.7,37.5,30.29,SE,131,3.0,3.5,33,0.00,CLR,SKC,0.00,WeatherDisplay:10.37,2013-10-13 22:00:00,
2013-10-13 17:05:00,67.7,37.5,30.29,SE,141,5.0,6.9,33,0.00,CLR,SKC,0.00,WeatherDisplay:10.37,2013-10-13 22:05:00,
2013-10-13 17:10:00,67.6,36.7,30.29,SE,134,4.7,8.1,32,0.00,CLR,SKC,0.00,WeatherDisplay:10.37,2013-10-13 22:10:00,
2013-10-13 17:16:00,67.3,36.4,30.28,SSE,149,4.7,5.8,32,0.00,CLR,SKC,0.00,WeatherDisplay:10.37,2013-10-13 22:16:00,
2013-10-13 17:20:00,67.3,37.2,30.28,ENE,73,3.3,5.0,33,0.00,CLR,SKC,0.00,WeatherDisplay:10.37,2013-10-13 22:20:00,
2013-10-13 17:26:00,67.3,37.2,30.28,East,98,2.9,5.0,33,0.00,CLR,SKC,0.00,WeatherDisplay:10.37,2013-10-13 22:26:00,
2013-10-13 17:31:00,67.2,37.1,30.28,East,101,4.3,8.1,33,0.00,CLR,SKC,0.00,WeatherDisplay:10.37,2013-10-13 22:31:00,
2013-10-13 17:36:00,67.2,37.1,30.28,East,82,3.4,6.0,33,0.00,CLR,SKC,0.00,WeatherDisplay:10.37,2013-10-13 22:36:00,
2013-10-13 17:41:00,67.1,37.0,30.28,ENE,75,6.3,9.0,33,0.00,CLR,SKC,0.00,WeatherDisplay:10.37,2013-10-13 22:41:00,
2013-10-13 17:46:00,66.9,36.8,30.28,ESE,113,4.3,9.2,33,0.00,CLR,SKC,0.00,WeatherDisplay:10.37,2013-10-13 22:46:00,
2013-10-13 17:51:00,66.8,37.5,30.28,SE,124,2.3,3.5,34,0.00,CLR,SKC,0.00,WeatherDisplay:10.37,2013-10-13 22:51:00,
2013-10-13 17:56:00,66.7,37.4,30.28,ESE,115,2.6,3.5,34,0.00,CLR,SKC,0.00,WeatherDisplay:10.37,2013-10-13 22:56:00,
2013-10-13 18:01:00,66.5,37.2,30.28,SE,125,2.2,5.8,34,0.00,CLR,SKC,0.00,WeatherDisplay:10.37,2013-10-13 23:01:00,
2013-10-13 18:06:00,66.3,37.8,30.28,SE,143,2.4,6.9,35,0.00,CLR,SKC,0.00,WeatherDisplay:10.37,2013-10-13 23:06:00,
2013-10-13 18:11:00,66.0,37.5,30.28,East,85,3.0,4.6,35,0.00,CLR,SKC,0.00,WeatherDisplay:10.37,2013-10-13 23:11:00,
2013-10-13 18:16:00,65.9,37.5,30.28,NE,54,3.3,4.6,35,0.00,CLR,SKC,0.00,WeatherDisplay:10.37,2013-10-13 23:16:00,
2013-10-13 18:21:00,65.8,37.4,30.28,ESE,115,2.8,3.5,35,0.00,CLR,SKC,0.00,WeatherDisplay:10.37,2013-10-13 23:21:00,
2013-10-13 18:26:00,65.6,37.2,30.28,East,91,1.8,3.5,35,0.00,CLR,SKC,0.00,WeatherDisplay:10.37,2013-10-13 23:26:00,
2013-10-13 18:31:00,65.4,37.0,30.28,SE,129,3.2,5.8,35,0.00,CLR,SKC,0.00,WeatherDisplay:10.37,2013-10-13 23:31:00,
2013-10-13 18:36:00,65.0,37.4,30.28,ESE,110,3.2,4.6,36,0.00,CLR,SKC,0.00,WeatherDisplay:10.37,2013-10-13 23:36:00,
2013-10-13 18:41:00,64.6,37.7,30.28,ESE,118,2.3,3.5,37,0.00,CLR,SKC,0.00,WeatherDisplay:10.37,2013-10-13 23:41:00,
2013-10-13 18:46:00,64.2,38.0,30.28,SSE,147,2.3,3.5,38,0.00,CLR,SKC,0.00,WeatherDisplay:10.37,2013-10-13 23:46:00,
2013-10-13 18:51:00,63.9,38.4,30.28,SE,131,1.6,2.3,39,0.00,CLR,SKC,0.00,WeatherDisplay:10.37,2013-10-13 23:51:00,
2013-10-13 18:56:00,63.5,38.1,30.29,ESE,108,1.5,3.5,39,0.00,CLR,SKC,0.00,WeatherDisplay:10.37,2013-10-13 23:56:00,
2013-10-13 19:01:00,63.2,38.5,30.29,ESE,114,2.0,4.6,40,0.00,CLR,SKC,0.00,WeatherDisplay:10.37,2013-10-14 00:01:00,
2013-10-13 19:06:00,62.8,38.7,30.29,SE,129,1.0,2.3,41,0.00,CLR,SKC,0.00,WeatherDisplay:10.37,2013-10-14 00:06:00,
2013-10-13 19:11:00,62.4,38.4,30.29,SE,131,1.1,3.5,41,0.00,CLR,SKC,0.00,WeatherDisplay:10.37,2013-10-14 00:11:00,
2013-10-13 19:16:00,62.1,38.7,30.29,ESE,114,1.6,4.0,42,0.00,CLR,SKC,0.00,WeatherDisplay:10.37,2013-10-14 00:16:00,
2013-10-13 19:21:00,61.8,38.4,30.29,ESE,105,2.1,3.5,42,0.00,CLR,SKC,0.00,WeatherDisplay:10.37,2013-10-14 00:21:00,
2013-10-13 19:26:00,61.5,38.8,30.29,SE,125,1.2,3.5,43,0.00,CLR,SKC,0.00,WeatherDisplay:10.37,2013-10-14 00:26:00,
2013-10-13 19:31:00,61.4,38.7,30.29,ESE,116,1.7,2.3,43,0.00,CLR,SKC,0.00,WeatherDisplay:10.37,2013-10-14 00:31:00,
2013-10-13 19:36:00,61.1,38.4,30.29,SE,137,2.6,4.6,43,0.00,CLR,SKC,0.00,WeatherDisplay:10.37,2013-10-14 00:36:00,
2013-10-13 19:41:00,60.9,38.8,30.29,ESE,120,1.7,3.5,44,0.00,CLR,SKC,0.00,WeatherDisplay:10.37,2013-10-14 00:41:00,
2013-10-13 19:46:00,60.6,38.6,30.29,SSE,153,1.8,3.5,44,0.00,CLR,SKC,0.00,WeatherDisplay:10.37,2013-10-14 00:46:00,
2013-10-13 19:51:00,60.5,38.5,30.29,ESE,117,1.1,2.3,44,0.00,CLR,SKC,0.00,WeatherDisplay:10.37,2013-10-14 00:51:00,
2013-10-13 19:56:00,60.4,38.4,30.29,ESE,110,1.4,5.0,44,0.00,CLR,SKC,0.00,WeatherDisplay:10.37,2013-10-14 00:56:00,
2013-10-13 20:01:00,60.1,38.7,30.30,SE,132,2.0,3.5,45,0.00,CLR,SKC,0.00,WeatherDisplay:10.37,2013-10-14 01:01:00,
2013-10-13 20:06:00,59.9,37.9,30.30,SE,129,1.3,2.3,44,0.00,CLR,SKC,0.00,WeatherDisplay:10.37,2013-10-14 01:06:00,
2013-10-13 20:11:00,59.8,37.8,30.30,ESE,118,2.4,3.5,44,0.00,CLR,SKC,0.00,WeatherDisplay:10.37,2013-10-14 01:11:00,
2013-10-13 20:16:00,59.8,37.8,30.30,SE,132,1.7,3.5,44,0.00,CLR,SKC,0.00,WeatherDisplay:10.37,2013-10-14 01:16:00,
2013-10-13 20:21:00,59.7,37.7,30.30,SE,124,1.8,3.5,44,0.00,CLR,SKC,0.00,WeatherDisplay:10.37,2013-10-14 01:21:00,
2013-10-13 20:26:00,59.7,37.7,30.30,SE,131,2.9,3.5,44,0.00,CLR,SKC,0.00,WeatherDisplay:10.37,2013-10-14 01:26:00,
2013-10-13 20:31:00,59.6,38.2,30.30,SE,145,1.6,5.8,45,0.00,CLR,SKC,0.00,WeatherDisplay:10.37,2013-10-14 01:31:00,
2013-10-13 20:36:00,59.4,38.0,30.30,ESE,120,1.5,3.5,45,0.00,CLR,SKC,0.00,WeatherDisplay:10.37,2013-10-14 01:36:00,
2013-10-13 20:41:00,59.3,37.9,30.30,East,87,3.6,4.6,45,0.00,CLR,SKC,0.00,WeatherDisplay:10.37,2013-10-14 01:41:00,
2013-10-13 20:46:00,59.2,37.9,30.29,ESE,120,2.8,4.6,45,0.00,CLR,SKC,0.00,WeatherDisplay:10.37,2013-10-14 01:46:00,
2013-10-13 20:51:00,59.2,37.9,30.30,ENE,78,3.3,4.6,45,0.00,CLR,SKC,0.00,WeatherDisplay:10.37,2013-10-14 01:51:00,
2013-10-13 20:56:00,59.1,38.3,30.30,ESE,103,2.6,6.0,46,0.00,CLR,SKC,0.00,WeatherDisplay:10.37,2013-10-14 01:56:00,
2013-10-13 21:01:00,59.0,38.2,30.30,ESE,107,4.1,5.8,46,0.00,CLR,SKC,0.00,WeatherDisplay:10.37,2013-10-14 02:01:00,
2013-10-13 21:06:00,58.8,38.1,30.29,East,97,2.6,3.5,46,0.00,CLR,SKC,0.00,WeatherDisplay:10.37,2013-10-14 02:06:00,
2013-10-13 21:11:00,58.6,38.4,30.29,SSE,153,2.6,3.5,47,0.00,CLR,SKC,0.00,WeatherDisplay:10.37,2013-10-14 02:11:00,
2013-10-13 21:16:00,58.5,38.3,30.29,SE,136,2.7,3.5,47,0.00,CLR,SKC,0.00,WeatherDisplay:10.37,2013-10-14 02:16:00,
2013-10-13 21:21:00,58.3,38.1,30.29,ESE,103,3.8,4.6,47,0.00,CLR,SKC,0.00,WeatherDisplay:10.37,2013-10-14 02:21:00,
2013-10-13 21:26:00,58.3,38.1,30.29,ESE,120,2.3,5.8,47,0.00,CLR,SKC,0.00,WeatherDisplay:10.37,2013-10-14 02:26:00,
2013-10-13 21:31:00,58.2,38.1,30.29,ESE,110,2.6,5.8,47,0.00,CLR,SKC,0.00,WeatherDisplay:10.37,2013-10-14 02:31:00,
2013-10-13 21:36:00,58.0,38.4,30.29,East,101,2.3,5.8,48,0.00,CLR,SKC,0.00,WeatherDisplay:10.37,2013-10-14 02:36:00,
2013-10-13 21:41:00,58.0,38.4,30.29,East,96,1.4,3.5,48,0.00,CLR,SKC,0.00,WeatherDisplay:10.37,2013-10-14 02:41:00,
2013-10-13 21:46:00,58.0,38.4,30.29,ESE,121,2.6,3.5,48,0.00,CLR,SKC,0.00,WeatherDisplay:10.37,2013-10-14 02:46:00,
2013-10-13 21:51:00,58.0,38.4,30.29,NE,53,3.3,10.0,48,0.00,CLR,SKC,0.00,WeatherDisplay:10.37,2013-10-14 02:51:00,
2013-10-13 21:56:00,57.8,38.2,30.30,East,94,4.4,6.9,48,0.00,CLR,SKC,0.00,WeatherDisplay:10.37,2013-10-14 02:56:00,
2013-10-13 22:01:00,57.7,38.1,30.30,East,81,6.4,9.2,48,0.00,CLR,SKC,0.00,WeatherDisplay:10.37,2013-10-14 03:01:00,
2013-10-13 22:06:00,57.6,38.0,30.29,East,91,8.1,11.5,48,0.00,CLR,SKC,0.00,WeatherDisplay:10.37,2013-10-14 03:06:00,
2013-10-13 22:11:00,57.4,38.4,30.30,SE,125,2.6,5.8,49,0.00,CLR,SKC,0.00,WeatherDisplay:10.37,2013-10-14 03:11:00,
2013-10-13 22:16:00,57.2,38.2,30.30,East,79,3.1,4.6,49,0.00,CLR,SKC,0.00,WeatherDisplay:10.37,2013-10-14 03:16:00,
2013-10-13 22:21:00,57.0,38.0,30.30,SE,132,4.0,5.8,49,0.00,CLR,SKC,0.00,WeatherDisplay:10.37,2013-10-14 03:21:00,
2013-10-13 22:26:00,56.8,38.3,30.30,ESE,121,3.7,6.9,50,0.00,CLR,SKC,0.00,WeatherDisplay:10.37,2013-10-14 03:26:00,
2013-10-13 22:31:00,56.5,38.1,30.30,SSE,149,3.3,4.6,50,0.00,CLR,SKC,0.00,WeatherDisplay:10.37,2013-10-14 03:31:00,
2013-10-13 22:36:00,56.3,38.4,30.30,SE,138,4.3,6.9,51,0.00,CLR,SKC,0.00,WeatherDisplay:10.37,2013-10-14 03:36:00,
2013-10-13 22:41:00,56.1,38.2,30.30,ENE,72,2.9,6.9,51,0.00,CLR,SKC,0.00,WeatherDisplay:10.37,2013-10-14 03:41:00,
2013-10-13 22:46:00,55.9,38.5,30.30,ESE,110,4.1,6.9,52,0.00,CLR,SKC,0.00,WeatherDisplay:10.37,2013-10-14 03:46:00,
2013-10-13 22:51:00,55.8,38.4,30.30,ESE,116,2.1,4.6,52,0.00,CLR,SKC,0.00,WeatherDisplay:10.37,2013-10-14 03:51:00,
2013-10-13 22:56:00,55.6,38.7,30.29,ESE,123,2.9,6.9,53,0.00,CLR,SKC,0.00,WeatherDisplay:10.37,2013-10-14 03:56:00,
2013-10-13 23:01:00,55.4,38.5,30.29,SSE,156,3.1,4.6,53,0.00,SCT,SKC,0.00,WeatherDisplay:10.37,2013-10-14 04:01:00,
2013-10-13 23:02:00,55.4,38.5,30.29,ESE,117,2.0,4.6,53,0.00,SCT,SKC,0.00,WeatherDisplay:10.37,2013-10-14 04:02:00,
2013-10-13 23:07:00,55.3,38.4,30.29,SE,138,3.1,4.6,53,0.00,SCT,SKC,0.00,WeatherDisplay:10.37,2013-10-14 04:07:00,
2013-10-13 23:12:00,55.2,38.4,30.29,ESE,118,4.6,6.9,53,0.00,SCT,SKC,0.00,WeatherDisplay:10.37,2013-10-14 04:12:00,
2013-10-13 23:17:00,55.1,38.7,30.29,SSE,162,3.4,4.6,54,0.00,SCT,SKC,0.00,WeatherDisplay:10.37,2013-10-14 04:17:00,
2013-10-13 23:22:00,54.9,38.6,30.29,SE,135,3.5,5.8,54,0.00,SCT,SKC,0.00,WeatherDisplay:10.37,2013-10-14 04:22:00,
2013-10-13 23:27:00,54.9,38.6,30.28,SSE,150,5.0,9.2,54,0.00,SCT,SKC,0.00,WeatherDisplay:10.37,2013-10-14 04:27:00,
2013-10-13 23:32:00,55.0,38.6,30.28,SSE,159,6.5,9.2,54,0.00,SCT,SKC,0.00,WeatherDisplay:10.37,2013-10-14 04:32:00,
2013-10-13 23:37:00,55.0,38.6,30.28,SE,145,3.7,6.0,54,0.00,SCT,SKC,0.00,WeatherDisplay:10.37,2013-10-14 04:37:00,
2013-10-13 23:42:00,55.0,38.6,30.28,ESE,110,4.1,7.0,54,0.00,BKN,SKC,0.00,WeatherDisplay:10.37,2013-10-14 04:42:00,
2013-10-13 23:47:00,54.9,38.6,30.28,SE,128,5.4,6.9,54,0.00,BKN,SKC,0.00,WeatherDisplay:10.37,2013-10-14 04:47:00,
2013-10-13 23:52:00,55.0,38.6,30.28,ESE,105,3.7,10.0,54,0.00,BKN,SKC,0.00,WeatherDisplay:10.37,2013-10-14 04:52:00,
2013-10-13 23:57:00,55.1,38.3,30.27,SE,127,4.3,11.5,53,0.00,BKN,SKC,0.00,WeatherDisplay:10.37,2013-10-14 04:57:00,